Time,TemperatureF,DewpointF,PressureIn,WindDirection,WindDirectionDegrees,WindSpeedMPH,WindSpeedGustMPH,Humidity,HourlyPrecipIn,Conditions,Clouds,dailyrainin,SoftwareType,DateUTC
2013-03-13 00:14:00,50.5,49.0,26.57,NW,308,0.0,-999.0,95,-99.99,,,0.01,weatherlink.com 1.10,2013-03-13 04:14:00,
2013-03-13 00:29:00,49.7,48.0,26.57,SW,218,0.0,-999.0,94,-99.99,,,0.01,weatherlink.com 1.10,2013-03-13 04:29:00,
2013-03-13 00:44:00,48.3,47.0,26.57,West,281,0.0,-999.0,94,-99.99,,,0.01,weatherlink.com 1.10,2013-03-13 04:44:00,
2013-03-13 00:59:00,46.2,44.0,26.57,West,279,0.0,-999.0,93,-99.99,,,0.01,weatherlink.com 1.10,2013-03-13 04:59:00,
2013-03-13 01:14:00,44.8,43.0,26.57,WNW,298,2.0,-999.0,93,-99.99,,,0.01,weatherlink.com 1.10,2013-03-13 05:14:00,
2013-03-13 01:29:00,43.6,42.0,26.57,NNE,14,0.0,-999.0,93,-99.99,,,0.01,weatherlink.com 1.10,2013-03-13 05:29:00,
2013-03-13 01:44:00,42.8,41.0,26.57,NNW,330,0.0,-999.0,94,-99.99,,,0.01,weatherlink.com 1.10,2013-03-13 05:44:00,
2013-03-13 01:59:00,42.3,41.0,26.57,West,277,0.0,-999.0,94,-99.99,,,0.01,weatherlink.com 1.10,2013-03-13 05:59:00,
2013-03-13 02:14:00,42.0,40.0,26.57,West,279,0.0,-999.0,93,-99.99,,,0.01,weatherlink.com 1.10,2013-03-13 06:14:00,
2013-03-13 02:29:00,41.3,40.0,26.57,NNE,24,0.0,-999.0,94,-99.99,,,0.01,weatherlink.com 1.10,2013-03-13 06:29:00,
2013-03-13 02:44:00,40.6,39.0,26.57,NE,40,0.0,-999.0,93,-99.99,,,0.01,weatherlink.com 1.10,2013-03-13 06:44:00,
2013-03-13 02:59:00,40.4,39.0,26.57,SW,227,0.0,-999.0,94,-99.99,,,0.01,weatherlink.com 1.10,2013-03-13 06:59:00,
2013-03-13 03:14:00,40.3,39.0,26.57,SW,227,0.0,-999.0,94,-99.99,,,0.01,weatherlink.com 1.10,2013-03-13 07:14:00,
2013-03-13 03:29:00,39.5,38.0,26.57,SW,227,0.0,-999.0,93,-99.99,,,0.01,weatherlink.com 1.10,2013-03-13 07:29:00,
2013-03-13 03:44:00,39.2,38.0,26.57,WNW,302,0.0,-999.0,94,-99.99,,,0.01,weatherlink.com 1.10,2013-03-13 07:44:00,
2013-03-13 03:59:00,38.9,37.0,26.57,WSW,249,0.0,-999.0,93,-99.99,,,0.01,weatherlink.com 1.10,2013-03-13 07:59:00,
2013-03-13 04:14:00,38.4,37.0,26.57,WSW,238,0.0,-999.0,94,-99.99,,,0.01,weatherlink.com 1.10,2013-03-13 08:14:00,
2013-03-13 04:29:00,37.8,36.0,26.57,SE,132,0.0,-999.0,93,-99.99,,,0.01,weatherlink.com 1.10,2013-03-13 08:29:00,
2013-03-13 04:44:00,37.2,35.0,24.61,NW,323,0.0,-999.0,93,-99.99,,,0.01,weatherlink.com 1.10,2013-03-13 08:44:00,
2013-03-13 04:59:00,36.7,35.0,24.61,WSW,250,0.0,-999.0,93,-99.99,,,0.01,weatherlink.com 1.10,2013-03-13 08:59:00,
2013-03-13 05:14:00,36.2,34.0,24.61,WSW,251,0.0,-999.0,93,-99.99,,,0.01,weatherlink.com 1.10,2013-03-13 09:14:00,
2013-03-13 05:29:00,35.8,34.0,24.61,WSW,251,0.0,-999.0,93,-99.99,,,0.01,weatherlink.com 1.10,2013-03-13 09:29:00,
2013-03-13 05:44:00,35.3,34.0,24.12,WSW,251,0.0,-999.0,93,-99.99,,,0.01,weatherlink.com 1.10,2013-03-13 09:44:00,
2013-03-13 05:59:00,35.0,33.0,24.12,WSW,250,0.0,-999.0,93,-99.99,,,0.01,weatherlink.com 1.10,2013-03-13 09:59:00,
2013-03-13 06:14:00,34.6,33.0,24.87,SSE,149,0.0,-999.0,93,-99.99,,,0.01,weatherlink.com 1.10,2013-03-13 10:14:00,
2013-03-13 06:29:00,34.7,33.0,24.89,NW,323,1.0,-999.0,93,-99.99,,,0.01,weatherlink.com 1.10,2013-03-13 10:29:00,
2013-03-13 06:44:00,34.6,33.0,24.90,WNW,297,0.0,-999.0,93,-99.99,,,0.01,weatherlink.com 1.10,2013-03-13 10:44:00,
2013-03-13 06:59:00,34.4,32.0,24.89,SSE,164,0.0,-999.0,92,-99.99,,,0.01,weatherlink.com 1.10,2013-03-13 10:59:00,
2013-03-13 07:14:00,34.2,32.0,24.88,WNW,290,0.0,-999.0,92,-99.99,,,0.01,weatherlink.com 1.10,2013-03-13 11:14:00,
2013-03-13 07:29:00,33.9,32.0,24.89,West,273,0.0,-999.0,92,-99.99,,,0.01,weatherlink.com 1.10,2013-03-13 11:29:00,
2013-03-13 07:44:00,34.2,32.0,24.85,West,273,0.0,-999.0,92,-99.99,,,0.01,weatherlink.com 1.10,2013-03-13 11:44:00,
2013-03-13 07:59:00,35.3,33.0,24.93,West,273,0.0,-999.0,92,-99.99,,,0.01,weatherlink.com 1.10,2013-03-13 11:59:00,
2013-03-13 08:14:00,35.4,33.0,24.88,West,273,0.0,-999.0,92,-99.99,,,0.01,weatherlink.com 1.10,2013-03-13 12:14:00,
2013-03-13 08:29:00,35.9,34.0,24.88,NW,317,0.0,-999.0,92,-99.99,,,0.01,weatherlink.com 1.10,2013-03-13 12:29:00,
2013-03-13 08:44:00,36.8,35.0,24.86,WSW,237,0.0,-999.0,91,-99.99,,,0.01,weatherlink.com 1.10,2013-03-13 12:44:00,
2013-03-13 08:59:00,38.0,35.0,24.89,WSW,246,0.0,-999.0,88,-99.99,,,0.01,weatherlink.com 1.10,2013-03-13 12:59:00,
2013-03-13 09:14:00,39.9,36.0,24.89,NW,306,0.0,-999.0,85,-99.99,,,0.01,weatherlink.com 1.10,2013-03-13 13:14:00,
2013-03-13 09:29:00,40.9,35.0,25.17,ENE,71,5.0,-999.0,79,-99.99,,,0.01,weatherlink.com 1.10,2013-03-13 13:29:00,
2013-03-13 09:44:00,42.2,36.0,24.90,NNE,20,0.0,-999.0,78,-99.99,,,0.01,weatherlink.com 1.10,2013-03-13 13:44:00,
2013-03-13 09:59:00,43.2,35.0,24.93,NNE,19,1.0,-999.0,73,-99.99,,,0.01,weatherlink.com 1.10,2013-03-13 13:59:00,
2013-03-13 10:14:00,44.5,35.0,24.85,NNE,15,2.0,-999.0,70,-99.99,,,0.01,weatherlink.com 1.10,2013-03-13 14:14:00,
2013-03-13 10:29:00,44.8,36.0,24.87,NW,320,0.0,-999.0,70,-99.99,,,0.01,weatherlink.com 1.10,2013-03-13 14:29:00,
2013-03-13 10:44:00,45.2,36.0,24.92,NW,317,2.0,-999.0,69,-99.99,,,0.01,weatherlink.com 1.10,2013-03-13 14:44:00,
2013-03-13 10:59:00,45.1,35.0,24.88,NNW,343,2.0,-999.0,67,-99.99,,,0.01,weatherlink.com 1.10,2013-03-13 14:59:00,
2013-03-13 11:14:00,46.3,35.0,24.87,NW,324,0.0,-999.0,65,-99.99,,,0.01,weatherlink.com 1.10,2013-03-13 15:14:00,
2013-03-13 11:29:00,47.2,35.0,24.89,NNE,19,0.0,-999.0,63,-99.99,,,0.01,weatherlink.com 1.10,2013-03-13 15:29:00,
2013-03-13 11:44:00,48.1,36.0,24.91,NE,37,0.0,-999.0,63,-99.99,,,0.01,weatherlink.com 1.10,2013-03-13 15:44:00,
2013-03-13 11:59:00,47.6,35.0,24.89,WNW,298,1.0,-999.0,61,-99.99,,,0.01,weatherlink.com 1.10,2013-03-13 15:59:00,
2013-03-13 12:14:00,48.7,35.0,24.88,SSE,167,0.0,-999.0,59,-99.99,,,0.01,weatherlink.com 1.10,2013-03-13 16:14:00,
2013-03-13 12:29:00,47.3,33.0,24.83,WNW,302,0.0,-999.0,59,-99.99,,,0.01,weatherlink.com 1.10,2013-03-13 16:29:00,
2013-03-13 12:44:00,48.1,34.0,24.86,ENE,61,2.0,-999.0,59,-99.99,,,0.01,weatherlink.com 1.10,2013-03-13 16:44:00,
2013-03-13 12:59:00,48.1,34.0,24.82,WNW,287,2.0,-999.0,58,-99.99,,,0.01,weatherlink.com 1.10,2013-03-13 16:59:00,
2013-03-13 13:14:00,49.4,35.0,24.86,NNW,333,0.0,-999.0,57,-99.99,,,0.01,weatherlink.com 1.10,2013-03-13 17:14:00,
2013-03-13 13:29:00,49.3,33.0,24.85,NW,318,2.0,-999.0,53,-99.99,,,0.01,weatherlink.com 1.10,2013-03-13 17:29:00,
2013-03-13 13:44:00,49.6,32.0,24.84,ESE,121,3.0,-999.0,52,-99.99,,,0.01,weatherlink.com 1.10,2013-03-13 17:44:00,
2013-03-13 13:59:00,49.6,32.0,24.89,NNW,342,0.0,-999.0,51,-99.99,,,0.01,weatherlink.com 1.10,2013-03-13 17:59:00,
2013-03-13 14:14:00,49.1,31.0,24.86,WNW,302,0.0,-999.0,51,-99.99,,,0.01,weatherlink.com 1.10,2013-03-13 18:14:00,
2013-03-13 14:29:00,49.0,32.0,24.80,WNW,286,3.0,-999.0,53,-99.99,,,0.01,weatherlink.com 1.10,2013-03-13 18:29:00,
2013-03-13 14:44:00,49.0,31.0,24.83,SSW,209,0.0,-999.0,51,-99.99,,,0.01,weatherlink.com 1.10,2013-03-13 18:44:00,
2013-03-13 14:59:00,48.6,30.0,24.88,WSW,252,0.0,-999.0,48,-99.99,,,0.01,weatherlink.com 1.10,2013-03-13 18:59:00,
2013-03-13 15:14:00,49.4,29.0,24.95,NW,304,1.0,-999.0,46,-99.99,,,0.01,weatherlink.com 1.10,2013-03-13 19:14:00,
2013-03-13 15:29:00,49.6,29.0,24.91,North,350,0.0,-999.0,45,-99.99,,,0.01,weatherlink.com 1.10,2013-03-13 19:29:00,
2013-03-13 15:44:00,49.8,28.0,24.95,NW,304,0.0,-999.0,44,-99.99,,,0.01,weatherlink.com 1.10,2013-03-13 19:44:00,
2013-03-13 15:59:00,49.7,28.0,24.95,SW,232,0.0,-999.0,43,-99.99,,,0.01,weatherlink.com 1.10,2013-03-13 19:59:00,
2013-03-13 16:14:00,49.4,27.0,24.94,NW,321,0.0,-999.0,42,-99.99,,,0.01,weatherlink.com 1.10,2013-03-13 20:14:00,
2013-03-13 16:29:00,49.3,26.0,24.94,WNW,300,0.0,-999.0,40,-99.99,,,0.01,weatherlink.com 1.10,2013-03-13 20:29:00,
2013-03-13 16:44:00,49.0,27.0,24.94,West,259,0.0,-999.0,42,-99.99,,,0.01,weatherlink.com 1.10,2013-03-13 20:44:00,
2013-03-13 16:59:00,48.4,25.0,24.94,WNW,292,0.0,-999.0,41,-99.99,,,0.01,weatherlink.com 1.10,2013-03-13 20:59:00,
2013-03-13 17:14:00,47.5,25.0,24.94,WNW,302,4.0,-999.0,42,-99.99,,,0.01,weatherlink.com 1.10,2013-03-13 21:14:00,
2013-03-13 17:29:00,46.7,23.0,24.94,WNW,294,0.0,-999.0,39,-99.99,,,0.01,weatherlink.com 1.10,2013-03-13 21:29:00,
2013-03-13 17:44:00,46.0,24.0,27.91,WNW,294,0.0,-999.0,42,-99.99,,,0.01,weatherlink.com 1.10,2013-03-13 21:44:00,
2013-03-13 18:00:00,45.7,24.0,24.99,WNW,299,0.0,-999.0,42,-99.99,,,0.01,weatherlink.com 1.10,2013-03-13 22:00:00,
2013-03-13 18:15:00,44.9,23.0,24.99,NNE,28,1.0,-999.0,42,-99.99,,,0.01,weatherlink.com 1.10,2013-03-13 22:15:00,
2013-03-13 18:29:00,44.5,23.0,24.99,WNW,302,3.0,-999.0,43,-99.99,,,0.01,weatherlink.com 1.10,2013-03-13 22:29:00,
2013-03-13 18:44:00,43.7,23.0,24.99,WNW,292,0.0,-999.0,44,-99.99,,,0.01,weatherlink.com 1.10,2013-03-13 22:44:00,
2013-03-13 18:59:00,42.9,24.0,24.99,SSW,211,0.0,-999.0,47,-99.99,,,0.01,weatherlink.com 1.10,2013-03-13 22:59:00,
2013-03-13 19:14:00,42.3,24.0,24.99,SW,234,0.0,-999.0,49,-99.99,,,0.01,weatherlink.com 1.10,2013-03-13 23:14:00,
2013-03-13 19:29:00,41.3,23.0,24.87,South,171,0.0,-999.0,48,-99.99,,,0.01,weatherlink.com 1.10,2013-03-13 23:29:00,
2013-03-13 19:44:00,40.4,23.0,24.87,West,272,0.0,-999.0,50,-99.99,,,0.01,weatherlink.com 1.10,2013-03-13 23:44:00,
2013-03-13 19:59:00,39.7,22.0,24.87,NE,48,0.0,-999.0,49,-99.99,,,0.01,weatherlink.com 1.10,2013-03-13 23:59:00,
2013-03-13 20:14:00,39.3,21.0,24.87,NW,323,0.0,-999.0,49,-99.99,,,0.01,weatherlink.com 1.10,2013-03-14 00:14:00,
2013-03-13 20:30:00,38.7,22.0,24.87,NW,308,0.0,-999.0,51,-99.99,,,0.01,weatherlink.com 1.10,2013-03-14 00:30:00,
2013-03-13 20:45:00,38.3,21.0,25.22,NW,308,0.0,-999.0,50,-99.99,,,0.01,weatherlink.com 1.10,2013-03-14 00:45:00,
2013-03-13 20:59:00,38.0,21.0,25.22,WNW,287,0.0,-999.0,51,-99.99,,,0.01,weatherlink.com 1.10,2013-03-14 00:59:00,
2013-03-13 21:14:00,37.5,21.0,25.22,ENE,57,0.0,-999.0,52,-99.99,,,0.01,weatherlink.com 1.10,2013-03-14 01:14:00,
2013-03-13 21:29:00,37.3,21.0,25.22,WSW,256,0.0,-999.0,52,-99.99,,,0.01,weatherlink.com 1.10,2013-03-14 01:29:00,
2013-03-13 21:44:00,37.5,21.0,25.22,West,259,0.0,-999.0,52,-99.99,,,0.00,weatherlink.com 1.10,2013-03-14 01:44:00,
2013-03-13 21:59:00,36.9,21.0,25.22,West,259,0.0,-999.0,53,-99.99,,,0.00,weatherlink.com 1.10,2013-03-14 01:59:00,
2013-03-13 22:14:00,36.1,20.0,25.22,West,259,0.0,-999.0,53,-99.99,,,0.00,weatherlink.com 1.10,2013-03-14 02:14:00,
2013-03-13 22:29:00,35.5,20.0,25.22,West,259,0.0,-999.0,53,-99.99,,,0.00,weatherlink.com 1.10,2013-03-14 02:29:00,
2013-03-13 22:44:00,34.4,21.0,25.22,West,259,0.0,-999.0,58,-99.99,,,0.00,weatherlink.com 1.10,2013-03-14 02:44:00,
2013-03-13 22:59:00,33.2,22.0,25.22,West,259,0.0,-999.0,64,-99.99,,,0.00,weatherlink.com 1.10,2013-03-14 02:59:00,
2013-03-13 23:14:00,32.3,22.0,25.22,West,259,0.0,-999.0,66,-99.99,,,0.00,weatherlink.com 1.10,2013-03-14 03:14:00,
2013-03-13 23:44:00,31.5,21.0,25.22,West,259,0.0,-999.0,65,-99.99,,,0.00,weatherlink.com 1.10,2013-03-14 03:44:00,
2013-03-13 23:59:00,30.8,21.0,25.22,West,259,0.0,-999.0,68,-99.99,,,0.00,weatherlink.com 1.10,2013-03-14 03:59:00,